Regional Weather Roundup
Issued by NWS Grand Forks, ND

Home | Current Version | Previous Version | Graphics & Text | Print | Product List | Glossary On
Versions: 1 2 3 4 5 6 7 8 9 10 11 12 13 14 15 16 17 18 19 20 21 22 23 24 25 26 27 28 29 30 31 32 33 34 35 36 37 38 39 40 41 42 43 44 45 46 47 48 49 50
000
ASUS43 KFGF 282031
RWRFGF
PRAIRIE TO PINES  WEATHER ROUNDUP
NATIONAL WEATHER SERVICE EASTERN NORTH DAKOTA/GRAND FORKS ND
300 PM CDT THU AUG 28 2014

 **SATELLITE DATA USED TO AUGMENT SKY COVER AT AUTOMATED STATIONS**
 *****  WEATHER ACROSS EASTERN NORTH DAKOTA  *****

CITY           SKY/WX    TMP DP  RH WIND       PRES   REMARKS
GRAND FORKS    PTSUNNY   75  65  70 S16       29.89F
GRAND FRKS AFB PTSUNNY   75  68  78 S14       29.90F
GRAND FRKS NWS   N/A     73 N/A N/A S20         N/A
DEVILS LAKE    PTSUNNY   77  64  65 S9        29.85F
FARGO          CLOUDY    72  64  76 S12G21    29.92F
WAHPETON ARPT  CLOUDY    66  61  82 SE9       29.94F
$$

 ***** WEATHER ACROSS CENTRAL AND WESTERN NORTH DAKOTA  *****

CITY           SKY/WX    TMP DP  RH WIND       PRES   REMARKS
BISMARCK       CLOUDY    73  67  81 S10       29.88F
MINOT          SUNNY     85  55  35 S13       29.82F
JAMESTOWN      CLOUDY    70  66  87 S5        29.90F
MINOT AFB      SUNNY     85  57  37 SW12G17   29.81F
GARRISON         N/A     81  67  62 S6        29.86F
WILLISTON      SUNNY     88  52  29 S12       29.83F
DICKINSON      MOSUNNY   84  57  39 W9        29.87F
HETTINGER      PTSUNNY   78  57  48 S7        29.92F
$$

 *****  OTHER AIRPORT OBSERVATIONS IN OUR AREA  *****

CITY           SKY/WX    TMP DP  RH WIND       PRES   REMARKS
WALHALLA       MOCLDY    81  72  74 S12G20    29.84F
GRAFTON AIRPOR MOCLDY    77  66  69 S17       29.87F
VALLEY CITY AR CLOUDY    72  72 100 S9        29.91F
CANDO          CLOUDY    77  66  69 SW12G17   29.86F
CAVALIER APRT  MOCLDY    79  68  69 S14G22    29.84F
GWINNER        MOCLDY    72  66  83 SE12      29.92F
ROLLA            N/A     77  64  65 S15       29.86F
 ***** THE ABOVE OBSERVATIONS ARE NON NWS ARE NOT QUALITY
       CONTROLLED AND MAY MIS-REPORT RAIN FOR SNOW...
$$

  *****  WEATHER ACROSS NORTHERN MINNESOTA  *****

CITY           SKY/WX    TMP DP  RH WIND       PRES   REMARKS
FLAG ISLAND    CLOUDY    68  63  83 S8        29.92F
WARROAD        PTSUNNY   72  64  78 SE9       29.93F
ROSEAU         PTSUNNY   75  66  73 S14       29.92F
HALLOCK        MOSUNNY   77  66  69 S18       29.86F
THF RVR FALLS  CLOUDY    70  64  83 S6        29.94F
BAUDETTE       PTSUNNY   72  60  66 S8        29.95F
WASKISH        PTSUNNY   72  63  73 SE9       29.97F
CROOKSTON      LGT RAIN  72  64  78 S12       29.93F
$$
  *****  WEATHER ACROSS CENTRAL AND WEST MINNESOTA  *****

CITY           SKY/WX    TMP DP  RH WIND       PRES   REMARKS
FOSSTON        CLOUDY    70  61  73 S8        29.96F
BEMIDJI        PTSUNNY   70  61  73 SE7       29.97F
PARK RAPIDS    CLOUDY    72  59  63 SE14      29.98F
ELBOW LAKE     DRIZZLE   66  64  92 SE7       29.95F
WADENA         DRIZZLE   68  61  77 SE10      29.97F
DETROIT LAKES  CLOUDY    72  61  68 SE12      29.97F
MOORHEAD       LGT RAIN  70  70 100 S7        29.93F
FERGUS FALLS   DRIZZLE   68  63  83 SE9       29.95F
MORRIS MN      LGT RAIN  66  64  94 SE9       29.94F
STAPLES        CLOUDY    70  59  68 SE7       29.98F
$$
  *****  WEATHER ELSEWHERE ACROSS MINNESOTA  *****

CITY           SKY/WX    TMP DP  RH WIND       PRES   REMARKS
DULUTH         PTSUNNY   71  55  56 SE7       30.04F
INTRNTL FALLS  CLOUDY    71  58  63 S7        29.99F
ELY            MOSUNNY   73  52  46 S7        30.03F
CLOQUET        PTSUNNY   72  55  56 SE8       30.03S
WHEATON        LGT RAIN  64  63  94 E10       29.95F
BRAINERD       CLOUDY    70  60  70 SE8       30.00F
HIBBING        CLOUDY    72  55  55 SE8       30.03F
ALEXANDRIA     LGT RAIN  68  64  87 SE6       29.98F
SAINT CLOUD    CLOUDY    74  61  63 SE8       29.98F
MINNEAPOLIS    CLOUDY    69  65  86 SE12      29.99F
$$

  *****  WEATHER ACROSS SOUTH DAKOTA  *****

CITY           SKY/WX    TMP DP  RH WIND       PRES   REMARKS
SIOUX FALLS    CLOUDY    72  68  87 SE7       29.89S
BROOKINGS      NOT AVBL
WATERTOWN      CLOUDY    68  66  93 E6        29.91F
HURON          CLOUDY    72  67  84 SE5       29.86F
SISSETON         N/A     67  66  97 SE8       29.92F
ABERDEEN       CLOUDY    69  68  96 E7        29.88F
MITCHELL       CLOUDY    74  69  85 E6        29.85F
PIERRE         CLOUDY    73  68  84 N10       29.86F
MOBRIDGE       LGT RAIN  69  68  96 VRB3      29.88F
RAPID CITY     CLOUDY    77  55  46 NW6       29.97F
$$

  *****  SOME WEATHER IN NEARBY STATES *****

CITY           SKY/WX    TMP DP  RH WIND       PRES   REMARKS
GLASGOW MT     SUNNY     88  50  27 W10G21    29.84F
GREAT FALLS MT MOSUNNY   81  45  28 SW3       29.95F
CHEYENNE WY    LGT RAIN  55  49  80 NW14G23   30.20R
SCOTTSBLUFF NE LGT RAIN  63  63 100 W8        30.08R
OMAHA NE       PTSUNNY   82  71  69 S9        29.88F
DES MOINES IA  CLOUDY    76  70  82 SE14      29.94F
DAVENPORT IA   TSTM      68  65  90 SE10      30.03F FOG
CHICAGO IL     PTSUNNY   76  54  46 NE12      30.08F
EAU CLAIRE WI  LGT RAIN  70  64  81 SE9       30.03F
LA CROSSE WI   LGT RAIN  70  65  84 SE6       30.02F
$$

  *****  SOME NATIONAL WEATHER *****

CITY           SKY/WX    TMP DP  RH WIND       PRES   REMARKS
LA GUARDIA NY  MOSUNNY   80  52  37 NW17G23   29.87S
RALEIGH NC     MOSUNNY   91  70  49 W6        29.96F HX  96
ATLANTA GA     MOSUNNY   90  57  32 E7        30.01F
NEW ORLEANS LA PTSUNNY   90  71  53 SE7G16    29.95F HX  96
OKLAHOMA CITY  PTSUNNY   93  61  34 S10G21    29.91F HX  93
ALBUQUERQUE NM MOSUNNY   81  42  25 NW17G23   30.18F
SALT LAKE CITY MOSUNNY   82  45  27 W6        30.18F
LOS ANGELES CA SUNNY     80  56  43 W14       29.96F
BOISE ID       SUNNY     85  40  20 VRB3      30.05F
SEATTLE WA     CLOUDY    66  58  75 SW6       30.13F
$$

*** WEATHER ACROSS MANITOBA...SASKATCHEWAN AND ONTARIO ***
                ***ONTARIO***

CITY           SKY/WX    TMP DP  RH WIND       PRES   REMARKS
GERALDTON      SUNNY     72  46  40 SW9       30.05F
THUNDER BAY    MOSUNNY   70  55  60 S13       30.06F
SIOUX LOOKOUT  PTSUNNY   73  55  53 S10G18    29.98F
TORONTO        MOSUNNY   72  43  35 N14G23    30.08F
BIG TROUT LK   NOT AVBL
PICKLE LAKE    MOSUNNY   75  46  35 SW13G22   29.94F
DRYDEN         CLOUDY    72  57  60 S12G18    29.98F
KENORA         PTSUNNY   73  61  64 S13       29.94F
$$
                *** MANITOBA***

CITY           SKY/WX    TMP DP  RH WIND       PRES   REMARKS
BRANDON        MOSUNNY   82  63  51 SW17G26   29.78F
DAUPHIN        SUNNY     82  64  54 SW10G17   29.73F
ISLAND LAKE    PTSUNNY   70  61  73 W6        29.73F
PILOT MOUND      N/A     81  64  57 S17G23      N/A
THE PAS        LGT RAIN N/A N/A N/A W13         N/A
THOMPSON       CLOUDY    68  57  68 W3        29.69F
WINNIPEG       MOSUNNY   81  64  57 S18G24    29.83F
LYNN LAKE      PTSUNNY   64  52  63 MISG      29.69F
CHURCHILL      PTSUNNY   70  52  52 W16       29.55F
GILLAM         CLOUDY    70  50  49 W8        29.68S
$$
                ***SASKATCHEWAN***

CITY           SKY/WX    TMP DP  RH WIND       PRES   REMARKS
ESTEVAN        MOSUNNY   86  59  39 SW9       29.80F
KINDERSLEY     PTSUNNY   70  50  49 NW9       29.91S
LLOYDMINSTER   CLOUDY    66  48  52 NW8       29.91S
PRINCE ALBERT  PTSUNNY   70  57  64 W6        29.82F
REGINA         MOSUNNY   79  59  50 N5        29.78F
YORKTON        SUNNY     77  59  53 N6        29.78F
N. BATTLEFORD  SUNNY     68  57  68 NW9       29.89F
LA RONGE       MOSUNNY   66  50  55 W13       29.80F
SASKATOON      PTSUNNY   72  54  53 NW9       29.87F
SWIFT CURRENT  MOSUNNY   77  55  47 W6        29.84S
$$
NOTE: THESE ARE AUTOMATED STATIONS WITH LIMITED QUALITY CONTROL
      "FAIR" INDICATES FEW OR NO CLOUDS BELOW 12,000 FEET WITH NO
      SIGNIFICANT WEATHER AND/OR OBSTRUCTIONS TO VISIBILITY.
      SKY/WX - SKY CONDITION AND SIGNIFICANT WEATHER.
      TMP - AIR TEMPERATURE.    DP   - DEWPOINT TEMPERATURE.
      RH  - RELATIVE HUMIDITY.  PRES - PRESSURE.
      HX  - HEAT INDEX.         WCI  - WIND CHILL INDEX.
$



USA.gov is the U.S. government's official web portal to all federal, state and local government web resources and services.